Wind_Speed
8 8 7 7 7 7 7 8 9 9 10 11 11 12 12 12 12 12 12 12 11 10 10 9 8 8 7 7 7 6 6 5 5 4 4 3 4 4 3 3 3 3 3
9 9 9 8 8 8 8 9 9 10 11 11 12 12 13 13 13 13 13 12 12 11 11 10 9 9 8 8 8 7 7 6 6 5 5 4 4 4 4 4 3 3 3
10 10 9 10 10 9 9 9 10 11 11 11 12 12 13 13 13 13 13 13 13 12 12 11 11 10 10 9 9 9 8 8 7 6 6 6 5 5 5 4 4 4 4
11 10 10 11 10 10 10 10 11 12 12 12 12 13 13 13 13 13 13 13 13 13 12 12 12 11 11 11 10 10 10 10 9 8 7 7 6 6 6 6 5 5 5
11 11 11 12 11 11 12 12 12 12 13 13 13 14 14 14 14 14 14 14 14 13 13 13 13 13 12 12 11 11 11 11 10 9 9 8 7 7 7 6 7 7 6
13 13 13 13 13 13 13 13 13 13 13 14 14 14 14 15 15 15 15 15 15 14 14 14 14 14 13 13 13 12 12 12 11 11 11 10 9 8 8 7 7 8 8
14 14 14 14 14 14 14 14 15 15 15 15 15 15 15 16 16 16 16 16 15 15 15 15 15 15 15 14 14 14 13 13 13 12 12 12 11 10 9 9 9 9 9
15 16 16 16 15 15 15 15 16 16 16 16 16 16 16 16 16 16 16 16 16 16 15 16 16 16 16 15 15 15 14 14 14 13 13 13 12 12 11 10 11 10 10
16 17 17 17 16 16 16 16 17 17 17 17 17 17 17 17 17 17 17 17 17 16 16 16 16 17 17 17 16 16 15 15 15 15 15 14 13 12 12 12 12 11 11
16 18 17 17 17 17 17 17 18 18 18 18 18 18 17 17 18 18 17 18 18 18 17 17 18 18 18 18 18 17 17 16 16 16 16 15 15 14 14 13 12 11 12
17 17 18 18 18 19 19 19 19 19 19 19 19 19 19 18 18 19 19 19 19 19 19 19 19 19 19 19 19 19 18 18 18 17 17 17 16 16 16 15 13 13 13
17 17 18 19 20 20 20 20 20 20 20 20 20 20 20 20 20 20 20 20 20 20 21 20 20 20 20 20 20 20 20 20 19 19 19 19 18 17 16 16 15 15 15
18 18 18 20 21 21 21 21 21 21 21 20 20 20 20 20 20 21 22 22 21 21 21 21 22 22 21 21 21 21 21 21 20 20 20 20 19 19 18 18 17 17 16
20 20 20 20 21 21 22 21 21 22 22 21 21 20 20 21 21 22 22 22 22 22 22 22 22 22 22 22 22 22 21 21 21 20 20 20 20 20 20 20 19 18 18
22 22 22 23 22 22 22 22 22 22 22 22 22 22 22 21 22 22 23 23 22 23 23 22 22 22 23 23 22 22 22 22 22 22 21 20 20 19 20 20 20 20 20
24 24 24 24 22 23 23 23 23 23 23 23 22 22 22 23 23 22 24 23 23 23 23 23 23 22 23 23 22 23 23 23 23 22 22 22 21 21 20 21 21 21 22
25 25 25 25 24 24 24 23 23 24 24 24 24 23 24 23 23 23 24 24 24 24 24 23 23 23 23 23 23 23 23 23 22 22 22 23 22 22 22 22 22 23 22
25 26 26 26 26 25 25 25 24 24 24 24 24 24 24 24 24 24 24 25 26 25 24 24 24 24 24 24 24 24 24 24 24 24 24 24 24 24 24 23 23 24 23
26 27 28 27 25 27 27 26 26 26 26 25 25 25 25 25 25 25 25 25 25 24 25 25 25 24 24 24 25 25 25 25 26 25 25 26 26 25 25 25 25 24 24
27 28 28 28 27 27 27 27 27 27 27 26 25 25 25 25 25 26 26 26 25 25 25 25 25 25 25 25 26 25 25 25 26 25 25 25 25 26 26 26 26 25 24
27 28 29 30 29 29 30 29 29 29 28 27 26 26 26 25 25 25 25 25 26 26 26 25 25 25 25 26 26 26 26 26 25 25 25 25 25 25 26 26 27 26 25
28 29 29 30 30 30 30 30 29 29 28 27 27 27 27 26 26 25 24 25 25 25 25 26 26 26 26 26 26 26 26 26 26 25 26 26 26 25 25 26 26 26 26
27 28 29 29 30 30 30 28 28 28 28 28 28 28 28 27 27 26 26 26 26 25 26 26 26 26 26 26 26 26 26 26 27 27 27 27 26 25 25 25 25 25 26
27 28 28 28 28 29 29 29 28 28 28 27 28 27 27 27 26 26 25 25 26 26 25 25 26 26 26 26 26 27 26 26 26 26 27 27 26 25 24 24 24 24 25
28 28 28 27 26 26 27 27 28 28 28 27 27 26 27 26 25 25 24 24 24 24 24 25 25 25 25 26 26 26 26 26 27 26 26 27 26 26 26 25 25 25 25
29 29 28 27 26 26 26 26 27 27 27 27 26 26 27 25 24 22 22 22 23 23 24 24 25 24 24 25 26 26 27 27 27 26 25 26 27 27 27 26 26 26 26
Wind_Direction
336 337 336 331 324 320 316 311 310 309 309 311 311 310 309 309 309 309 309 308 306 306 305 304 304 303 300 300 299 298 296 294 295 291 290 286 287 287 275 253 242 232 226
328 329 327 325 322 318 312 308 305 304 303 304 305 305 305 304 304 305 306 306 304 303 301 299 299 298 297 297 295 293 293 292 292 287 284 282 284 282 275 264 254 242 239
321 323 322 319 316 314 310 304 302 300 300 300 301 301 302 301 300 301 301 300 299 298 296 295 294 294 294 293 292 292 290 288 288 288 287 283 282 282 276 266 262 254 250
315 315 315 314 311 308 304 301 298 297 297 296 297 298 298 298 298 297 297 295 294 294 293 291 291 291 291 291 291 292 291 288 288 286 285 283 278 280 276 265 264 260 254
309 309 310 309 306 302 298 296 296 295 295 295 295 295 295 294 294 294 292 291 290 289 288 286 287 288 289 289 290 291 291 289 288 286 282 277 277 275 270 267 263 261 257
304 307 307 306 303 300 296 293 292 293 293 292 292 292 292 292 292 290 289 287 286 285 283 282 283 283 285 286 287 288 289 287 284 283 280 274 272 271 266 264 262 261 259
303 305 304 302 299 296 294 292 289 291 291 291 289 290 290 290 289 287 286 285 284 283 283 281 279 280 281 283 283 282 282 283 282 279 277 275 269 265 263 262 261 262 260
300 299 298 297 295 293 291 290 289 289 290 289 288 289 288 286 286 286 287 284 283 282 281 281 278 278 279 279 280 280 279 279 280 279 275 273 270 267 265 264 261 262 261
298 298 296 295 293 292 289 288 290 289 288 287 287 286 285 284 284 284 285 284 283 281 281 281 279 279 278 277 277 277 275 274 276 275 273 271 267 266 264 264 263 260 259
293 296 294 292 292 291 290 290 289 289 288 287 286 285 285 285 284 282 283 283 282 281 280 280 279 279 278 277 276 275 273 272 272 271 270 267 267 266 263 262 260 260 263
289 293 290 288 289 289 289 288 288 287 286 286 285 283 283 283 283 282 282 282 281 279 278 279 279 278 278 277 277 275 274 270 269 269 268 266 265 263 259 258 258 262 263
287 290 285 283 287 285 285 285 285 285 284 283 283 283 282 282 282 281 280 281 280 278 277 278 279 277 277 277 277 275 274 271 269 268 268 269 269 263 259 258 260 262 263
291 290 287 284 284 283 283 283 283 284 283 283 281 282 280 281 281 281 280 280 281 280 277 277 277 276 275 276 276 274 272 271 270 269 269 269 268 265 263 261 260 261 261
292 292 290 286 285 284 284 283 281 282 283 284 281 279 281 281 280 279 280 280 281 280 277 277 277 274 274 274 273 272 271 270 270 271 269 271 270 264 262 263 260 261 262
296 294 290 288 284 282 283 282 282 283 283 283 282 282 280 279 279 278 277 279 281 282 278 275 275 273 273 272 271 271 271 270 271 270 268 271 271 267 263 262 262 262 261
295 293 293 291 286 283 283 282 282 283 281 280 281 281 281 280 278 279 278 278 280 280 278 276 275 274 273 271 269 269 270 268 269 270 270 270 270 267 265 262 263 263 262
295 293 292 290 288 286 282 282 282 283 282 282 280 280 281 281 281 282 278 276 278 278 276 276 274 272 271 271 271 270 268 267 268 269 269 270 269 266 263 262 261 261 261
295 294 294 290 287 285 282 280 283 283 283 281 280 281 282 282 282 283 279 277 276 276 276 275 273 272 270 269 270 269 267 266 267 267 267 269 269 266 263 262 261 260 260
297 297 296 293 289 287 286 283 284 282 281 280 280 281 283 285 284 283 281 279 276 275 275 275 273 272 269 268 268 268 267 267 267 267 267 267 267 265 262 261 260 259 260
298 297 297 294 289 288 287 284 284 285 281 280 281 281 281 283 284 283 281 279 277 275 274 274 274 272 268 267 266 266 267 266 267 266 264 266 266 264 262 261 259 259 259
299 299 297 296 291 289 289 285 284 284 280 278 278 279 279 281 281 281 279 277 277 275 274 272 272 271 270 269 267 266 266 267 267 266 266 266 266 263 261 259 259 259 259
299 297 295 295 291 291 291 286 285 284 281 278 279 277 278 279 279 278 280 280 279 276 275 273 272 271 270 269 268 267 266 266 267 267 267 267 266 265 262 259 259 259 259
300 297 296 296 294 293 292 287 285 285 282 279 279 276 277 278 279 278 279 280 279 276 276 273 272 271 270 270 269 269 267 266 266 267 267 266 265 264 262 259 258 259 258
301 300 300 298 295 293 290 287 287 286 284 281 280 279 276 277 276 277 279 279 279 279 277 273 271 270 269 269 269 270 270 268 266 267 268 266 264 262 260 259 258 257 256
303 304 304 299 294 294 292 288 287 284 282 281 280 279 277 275 275 275 276 277 279 280 277 275 273 270 269 268 269 271 271 271 268 267 266 265 262 259 259 258 257 256 255
303 304 303 300 295 296 294 291 291 289 286 282 280 279 280 276 274 274 274 276 279 279 278 275 274 270 269 269 269 270 271 270 269 267 263 262 261 258 257 257 255 255 253
Height
5913 5912 5911 5910 5909 5909 5908 5907 5907 5906 5905 5904 5903 5902 5901 5900 5899 5898 5897 5896 5895 5894 5892 5891 5890 5889 5888 5887 5886 5885 5884 5883 5883 5882 5881 5880 5879 5878 5878 5877 5876 5876 5876
5913 5911 5911 5909 5909 5908 5907 5907 5906 5905 5904 5903 5902 5901 5900 5899 5898 5897 5896 5895 5894 5892 5891 5890 5889 5888 5887 5886 5885 5884 5883 5882 5882 5881 5880 5879 5878 5878 5877 5876 5876 5875 5875
5912 5910 5909 5908 5908 5907 5906 5906 5905 5904 5903 5902 5901 5900 5899 5898 5897 5896 5895 5894 5892 5891 5890 5889 5888 5887 5886 5885 5884 5883 5882 5881 5880 5880 5879 5878 5877 5877 5876 5875 5875 5875 5875
5910 5909 5908 5907 5906 5905 5905 5904 5903 5903 5902 5901 5900 5899 5898 5897 5896 5895 5894 5892 5891 5890 5889 5888 5886 5885 5884 5883 5882 5882 5880 5880 5879 5878 5877 5877 5876 5875 5875 5874 5874 5874 5874
5909 5908 5907 5906 5905 5904 5903 5902 5902 5901 5900 5899 5898 5897 5896 5895 5894 5893 5892 5891 5890 5888 5887 5886 5885 5884 5882 5882 5881 5880 5879 5878 5877 5877 5876 5875 5875 5874 5874 5873 5873 5873 5873
5907 5906 5905 5904 5903 5902 5901 5901 5900 5899 5898 5897 5896 5895 5894 5893 5892 5891 5890 5889 5888 5887 5885 5884 5883 5882 5881 5880 5879 5878 5877 5876 5876 5875 5874 5874 5873 5872 5872 5872 5872 5872 5872
5905 5904 5903 5902 5901 5900 5899 5898 5898 5897 5896 5895 5894 5893 5892 5891 5889 5888 5887 5886 5885 5885 5883 5882 5881 5880 5878 5877 5877 5876 5875 5874 5874 5873 5872 5872 5871 5871 5870 5870 5870 5870 5870
5902 5901 5900 5900 5899 5898 5897 5896 5895 5894 5893 5892 5891 5890 5889 5888 5887 5886 5885 5884 5883 5882 5881 5880 5878 5877 5876 5875 5874 5873 5873 5872 5871 5871 5870 5870 5869 5869 5868 5868 5868 5868 5868
5899 5898 5897 5896 5895 5894 5893 5892 5892 5891 5890 5889 5888 5887 5885 5884 5884 5883 5882 5881 5880 5879 5878 5877 5875 5874 5873 5872 5871 5870 5870 5869 5868 5868 5867 5867 5867 5866 5866 5866 5865 5865 5865
5897 5895 5894 5893 5892 5891 5890 5889 5888 5887 5886 5885 5884 5883 5882 5881 5880 5879 5878 5877 5876 5875 5874 5873 5872 5871 5869 5868 5868 5867 5867 5866 5865 5864 5864 5864 5864 5864 5864 5863 5862 5862 5863
5893 5891 5890 5890 5889 5888 5887 5885 5884 5883 5881 5881 5880 5879 5878 5877 5876 5875 5874 5873 5872 5871 5870 5869 5868 5867 5866 5865 5864 5863 5863 5862 5862 5862 5861 5861 5860 5860 5860 5859 5859 5859 5860
5890 5888 5886 5885 5885 5884 5882 5881 5880 5879 5877 5876 5875 5875 5874 5873 5872 5870 5870 5869 5868 5867 5866 5865 5864 5863 5862 5860 5860 5859 5859 5859 5858 5858 5857 5857 5856 5856 5856 5856 5856 5856 5856
5885 5884 5883 5882 5881 5879 5878 5877 5876 5874 5873 5871 5870 5870 5869 5868 5867 5866 5865 5864 5863 5862 5861 5860 5860 5859 5857 5856 5855 5854 5854 5854 5854 5854 5853 5853 5853 5853 5852 5852 5852 5853 5852
5881 5880 5879 5877 5876 5875 5873 5872 5871 5870 5868 5867 5865 5865 5864 5863 5862 5861 5860 5859 5858 5857 5857 5856 5855 5854 5853 5852 5851 5850 5849 5849 5849 5849 5849 5849 5848 5848 5848 5848 5848 5848 5848
5877 5876 5876 5874 5872 5870 5868 5867 5866 5865 5863 5862 5860 5860 5859 5858 5857 5856 5855 5854 5853 5852 5851 5850 5850 5848 5847 5847 5846 5845 5844 5844 5844 5844 5843 5843 5843 5843 5843 5843 5844 5844 5844
5872 5871 5870 5868 5867 5865 5863 5862 5861 5859 5858 5855 5855 5854 5853 5852 5851 5850 5849 5848 5847 5846 5845 5844 5844 5843 5842 5841 5841 5840 5839 5839 5839 5839 5838 5838 5838 5838 5838 5838 5839 5839 5839
5867 5866 5865 5863 5861 5859 5857 5856 5855 5854 5852 5851 5850 5848 5847 5846 5845 5844 5843 5842 5841 5840 5839 5838 5838 5837 5836 5836 5835 5835 5834 5834 5833 5833 5833 5833 5833 5832 5832 5833 5833 5833 5834
5862 5860 5858 5857 5853 5851 5851 5849 5848 5847 5846 5845 5844 5843 5841 5840 5839 5838 5837 5836 5835 5834 5833 5832 5832 5831 5830 5830 5830 5829 5828 5828 5827 5827 5827 5827 5827 5827 5827 5827 5827 5828 5828
5856 5854 5851 5849 5847 5845 5843 5842 5842 5840 5839 5838 5837 5836 5835 5834 5833 5831 5830 5829 5828 5827 5826 5826 5825 5825 5824 5824 5823 5823 5822 5821 5821 5820 5820 5820 5820 5820 5820 5821 5821 5821 5822
5851 5849 5845 5843 5841 5839 5837 5835 5834 5833 5832 5831 5830 5829 5828 5827 5826 5825 5823 5822 5821 5820 5819 5819 5818 5818 5817 5817 5817 5816 5815 5815 5814 5814 5813 5813 5813 5813 5814 5814 5814 5815 5816
5846 5843 5840 5837 5834 5833 5830 5828 5827 5826 5824 5824 5823 5822 5821 5820 5819 5818 5816 5815 5814 5813 5812 5812 5811 5811 5810 5810 5810 5809 5809 5808 5808 5807 5807 5806 5806 5806 5807 5807 5808 5808 5809
5840 5837 5834 5831 5829 5826 5824 5822 5821 5819 5817 5816 5815 5814 5814 5813 5812 5811 5810 5808 5807 5806 5805 5805 5804 5803 5803 5802 5802 5802 5802 5802 5801 5800 5800 5799 5799 5799 5800 5800 5801 5802 5802
5834 5830 5827 5825 5822 5820 5817 5814 5813 5811 5810 5808 5808 5807 5806 5806 5805 5804 5802 5801 5800 5799 5797 5797 5796 5796 5796 5795 5794 5795 5795 5795 5794 5793 5792 5792 5792 5792 5792 5793 5794 5794 5795
5828 5824 5821 5818 5815 5813 5810 5808 5805 5803 5802 5801 5800 5799 5798 5797 5796 5795 5794 5793 5792 5791 5790 5789 5788 5788 5788 5787 5787 5786 5787 5786 5786 5786 5785 5785 5785 5785 5785 5786 5787 5787 5788
5821 5818 5815 5812 5809 5806 5803 5801 5799 5797 5795 5794 5792 5791 5790 5789 5788 5788 5786 5786 5785 5784 5783 5782 5781 5780 5780 5779 5779 5778 5778 5778 5778 5778 5778 5778 5778 5778 5779 5779 5780 5781 5781
5815 5812 5809 5806 5803 5800 5797 5795 5793 5790 5788 5787 5785 5784 5783 5782 5781 5780 5779 5778 5777 5777 5776 5775 5773 5773 5772 5772 5771 5771 5770 5770 5770 5770 5771 5771 5771 5771 5772 5772 5773 5773 5774